Temp
77 77 76 76 77 77 75 76 76 75 75 76 75 74 74 73 73 73 73 73 73 72 72 72 72 72 72 72 72 73 72 71 71 71 70 69 68 68 67 67 67 68
76 77 77 77 77 78 77 76 76 76 75 76 76 75 75 74 73 73 72 72 72 72 72 72 72 72 72 73 72 71 71 70 69 71 69 69 69 69 67 67 67 68
77 76 77 76 76 77 76 76 76 76 76 76 76 76 75 74 73 74 73 72 72 72 71 71 72 72 72 72 71 71 70 69 69 71 70 69 69 69 68 68 68 67
76 76 76 77 77 77 77 76 76 76 76 75 75 76 75 74 73 73 72 72 72 71 71 71 71 72 72 72 71 71 70 70 70 70 69 69 69 69 68 68 68 68
75 76 77 77 77 78 77 76 76 76 76 76 76 76 75 73 73 73 72 72 72 72 71 71 71 71 71 71 71 70 70 70 69 69 69 68 69 68 68 68 67 66
76 78 78 77 77 76 75 76 76 76 76 75 75 76 75 74 74 74 73 72 73 72 72 72 72 71 71 71 70 70 70 70 69 69 69 68 68 69 70 68 66 66
76 76 76 77 77 77 75 73 74 74 77 76 77 75 75 74 74 74 75 73 74 73 73 72 71 71 71 71 70 70 70 70 69 70 69 69 68 67 68 68 68 68
76 76 76 76 75 75 75 74 73 73 72 77 76 76 76 75 75 75 75 74 74 74 74 74 72 72 71 71 70 69 69 69 68 69 69 69 67 67 67 67 66 66
75 75 76 75 75 75 73 74 71 69 71 74 75 76 77 76 75 75 75 75 75 74 74 74 73 73 71 71 70 70 69 68 68 68 68 66 66 67 68 68 65 65
74 75 74 74 74 75 75 74 73 72 72 70 73 76 77 76 77 77 76 75 74 74 74 74 73 73 72 72 72 71 69 68 68 68 68 67 67 67 69 67 66 65
71 72 72 70 67 68 68 69 71 73 73 72 70 71 73 75 76 77 76 75 73 74 74 74 73 73 72 71 71 71 70 69 69 69 68 68 67 67 64 66 66 65
69 68 69 70 68 68 68 69 70 69 72 71 73 73 73 72 75 76 76 76 76 76 76 76 75 74 73 72 72 71 70 69 68 68 67 68 67 66 67 66 64 65
70 69 70 69 69 68 68 68 67 67 72 73 73 73 71 71 74 76 76 76 76 76 75 75 75 75 73 72 72 71 70 69 67 67 67 67 67 67 67 66 65 65
65 67 68 70 70 71 69 68 68 69 67 64 64 68 71 72 72 73 76 76 76 76 76 75 75 74 74 73 72 70 69 68 67 66 66 65 65 66 66 65 64 64
64 66 67 67 69 70 70 71 71 68 64 62 62 64 67 69 74 75 75 75 76 75 76 75 73 73 73 72 71 70 69 67 67 66 66 65 64 64 64 64 64 64
69 68 68 69 70 71 71 72 72 73 73 70 66 65 66 71 72 74 74 73 72 74 74 73 72 72 66 57 60 69 68 68 66 66 66 65 64 63 63 63 63 64
72 72 72 72 72 72 72 73 74 74 73 73 72 72 71 71 71 72 72 68 62 67 71 70 67 65 50 50 52 55 66 66 65 64 65 64 63 63 62 62 63 64
72 73 73 72 73 73 73 74 73 73 73 73 73 71 71 71 70 70 70 70 68 66 64 64 65 49 46 47 48 50 56 66 65 64 63 63 63 63 63 63 63 62
72 72 72 72 73 73 73 73 72 72 72 72 71 72 71 70 69 69 69 69 66 65 67 66 62 45 45 46 46 47 49 58 66 64 63 63 64 63 63 63 62 62
71 72 71 72 72 72 72 72 72 71 71 72 71 71 70 69 69 68 68 68 66 66 66 66 57 45 44 45 45 44 44 51 66 63 63 63 63 62 61 61 60 61
71 71 70 70 71 71 70 71 71 70 71 71 71 70 70 69 68 67 67 66 65 65 63 59 55 43 43 43 43 43 41 47 63 61 61 61 61 61 61 60 60 59
70 69 69 70 70 70 70 70 70 70 69 70 70 70 71 71 70 69 67 66 67 65 62 56 53 41 42 43 43 42 41 56 61 59 59 60 61 61 60 60 60 59
69 68 68 68 68 68 69 68 68 69 70 71 69 69 69 68 68 68 68 67 66 65 63 56 53 44 41 42 42 41 46 59 59 59 59 59 59 60 60 61 61 61
69 69 68 68 68 68 68 68 69 70 70 70 69 68 68 68 68 68 67 67 65 63 60 56 53 45 40 41 41 41 49 58 59 59 59 60 60 61 62 62 62 55
69 68 68 67 67 67 67 67 68 68 69 70 69 69 68 69 68 66 65 64 63 61 52 53 51 45 40 40 41 41 48 58 60 61 60 60 60 60 61 61 62 57
68 67 67 66 66 66 66 67 68 68 68 68 68 69 68 68 67 65 62 59 58 56 54 53 49 47 44 39 41 40 40 53 59 57 56 57 58 59 59 60 60 60
MSLP
1014.33 1014.45 1014.77 1014.93 1015.01 1015.09 1015.45 1015.57 1015.69 1015.97 1016.13 1016.17 1016.49 1016.73 1016.97 1017.13 1017.33 1017.41 1017.45 1017.57 1017.61 1017.73 1017.81 1017.85 1017.89 1017.93 1017.97 1018.01 1017.97 1017.93 1018.09 1018.29 1018.29 1018.33 1018.41 1018.45 1018.65 1018.65 1018.73 1018.81 1018.77 1018.65
1014.21 1014.29 1014.45 1014.65 1014.81 1014.77 1015.09 1015.29 1015.49 1015.77 1015.97 1016.01 1016.09 1016.41 1016.69 1016.97 1017.29 1017.33 1017.53 1017.69 1017.77 1017.85 1017.89 1017.97 1018.01 1018.05 1018.05 1018.05 1018.17 1018.21 1018.29 1018.45 1018.53 1018.45 1018.61 1018.61 1018.61 1018.69 1018.89 1018.85 1018.81 1018.81
1014.09 1014.29 1014.37 1014.57 1014.65 1014.77 1014.93 1015.13 1015.29 1015.53 1015.69 1015.85 1015.89 1016.17 1016.49 1016.81 1017.13 1017.17 1017.41 1017.61 1017.73 1017.85 1017.97 1018.01 1018.05 1018.09 1018.09 1018.17 1018.29 1018.29 1018.45 1018.61 1018.65 1018.57 1018.57 1018.69 1018.69 1018.73 1018.89 1018.81 1018.85 1018.93
1014.01 1014.17 1014.33 1014.45 1014.49 1014.61 1014.77 1015.09 1015.21 1015.29 1015.45 1015.69 1015.89 1015.97 1016.25 1016.65 1016.93 1017.09 1017.29 1017.45 1017.57 1017.77 1017.89 1017.93 1018.05 1018.09 1018.09 1018.21 1018.29 1018.33 1018.53 1018.57 1018.65 1018.77 1018.89 1018.93 1018.89 1018.89 1018.93 1018.93 1019.01 1018.97
1013.85 1014.05 1014.21 1014.33 1014.45 1014.49 1014.69 1015.05 1015.17 1015.17 1015.29 1015.41 1015.57 1015.81 1016.05 1016.49 1016.77 1016.89 1017.09 1017.25 1017.33 1017.57 1017.69 1017.85 1017.93 1018.01 1018.09 1018.25 1018.21 1018.37 1018.53 1018.57 1018.81 1018.81 1018.81 1018.97 1019.01 1019.13 1019.17 1019.13 1019.25 1019.21
1013.73 1013.85 1013.97 1014.17 1014.29 1014.65 1015.05 1015.09 1015.25 1015.21 1015.25 1015.29 1015.41 1015.53 1015.73 1016.09 1016.41 1016.53 1016.77 1016.97 1017.05 1017.21 1017.45 1017.61 1017.77 1017.89 1018.01 1018.09 1018.21 1018.33 1018.49 1018.49 1018.69 1018.77 1018.85 1019.01 1019.09 1019.13 1019.13 1019.25 1019.37 1019.37
1013.65 1013.73 1013.89 1013.97 1014.13 1014.37 1014.85 1015.21 1015.29 1015.57 1015.29 1015.17 1015.17 1015.33 1015.41 1015.81 1016.01 1016.13 1016.33 1016.57 1016.73 1016.89 1017.09 1017.33 1017.53 1017.69 1017.81 1017.89 1018.09 1018.21 1018.29 1018.37 1018.65 1018.69 1018.81 1018.81 1019.01 1019.25 1019.21 1019.25 1019.25 1019.21
1013.57 1013.61 1013.77 1013.89 1014.21 1014.37 1014.65 1014.97 1015.29 1015.57 1015.89 1015.25 1015.13 1015.13 1015.21 1015.45 1015.61 1015.73 1015.89 1016.17 1016.37 1016.57 1016.73 1016.89 1017.13 1017.33 1017.53 1017.65 1017.85 1018.05 1018.21 1018.41 1018.61 1018.61 1018.65 1018.77 1019.01 1019.05 1019.13 1019.33 1019.45 1019.33
1013.61 1013.65 1013.65 1013.85 1014.09 1014.29 1014.81 1014.85 1015.09 1015.65 1015.93 1015.49 1015.33 1015.17 1015.13 1015.17 1015.33 1015.37 1015.57 1015.73 1015.97 1016.13 1016.33 1016.53 1016.73 1016.93 1017.21 1017.41 1017.57 1017.81 1018.09 1018.41 1018.45 1018.49 1018.61 1018.85 1019.05 1019.01 1018.97 1019.05 1019.33 1019.37
1013.65 1013.69 1013.81 1013.81 1013.97 1014.13 1014.49 1014.81 1014.93 1014.97 1015.09 1015.53 1015.53 1015.29 1015.13 1015.13 1015.13 1015.13 1015.25 1015.45 1015.61 1015.77 1015.97 1016.17 1016.41 1016.65 1016.93 1017.17 1017.29 1017.53 1017.85 1018.13 1018.29 1018.41 1018.57 1018.69 1018.81 1018.89 1018.81 1019.05 1019.13 1019.25
1014.09 1014.01 1014.01 1014.33 1014.53 1014.61 1014.85 1015.09 1015.21 1014.85 1014.65 1014.85 1015.37 1015.45 1015.45 1015.17 1014.93 1015.01 1015.01 1015.13 1015.33 1015.49 1015.65 1015.85 1016.09 1016.29 1016.61 1016.93 1017.05 1017.29 1017.53 1017.81 1018.09 1018.21 1018.45 1018.57 1018.69 1018.81 1019.09 1019.13 1019.13 1019.29
1014.29 1014.45 1014.49 1014.37 1014.57 1014.65 1014.57 1014.61 1014.81 1015.05 1014.73 1014.45 1014.49 1014.73 1014.85 1015.13 1015.05 1014.77 1014.81 1014.81 1014.93 1015.09 1015.25 1015.49 1015.81 1016.09 1016.33 1016.61 1016.81 1017.13 1017.41 1017.65 1017.89 1018.09 1018.33 1018.45 1018.65 1018.89 1018.93 1019.09 1019.29 1019.25
1014.09 1014.29 1014.33 1014.41 1014.41 1014.53 1014.69 1014.85 1015.21 1015.09 1014.49 1014.41 1014.45 1014.49 1014.85 1015.05 1014.77 1014.65 1014.45 1014.49 1014.49 1014.65 1014.85 1015.05 1015.29 1015.69 1016.17 1016.49 1016.49 1016.85 1017.21 1017.53 1017.81 1018.01 1018.29 1018.41 1018.53 1018.73 1018.81 1019.01 1019.17 1019.25
1014.45 1014.49 1014.33 1014.09 1014.09 1014.21 1014.57 1014.73 1014.61 1014.41 1014.49 1014.89 1015.17 1014.93 1014.77 1014.73 1014.73 1014.65 1014.09 1014.09 1014.13 1014.25 1014.41 1014.61 1014.89 1015.29 1015.77 1016.17 1016.25 1016.49 1016.97 1017.33 1017.61 1017.93 1018.13 1018.37 1018.61 1018.65 1018.77 1018.97 1019.13 1019.25
1014.49 1014.49 1014.25 1014.21 1014.29 1014.25 1014.25 1014.17 1013.93 1014.01 1014.09 1014.53 1015.01 1015.21 1014.97 1014.77 1014.17 1013.93 1013.93 1013.97 1014.01 1014.01 1014.09 1014.29 1014.61 1014.89 1015.33 1015.85 1016.21 1016.37 1016.77 1017.17 1017.45 1017.73 1017.93 1018.25 1018.53 1018.65 1018.77 1018.93 1019.01 1019.09
1014.09 1014.17 1014.17 1014.09 1014.09 1013.97 1013.81 1013.53 1013.33 1013.21 1013.25 1013.77 1014.53 1015.01 1014.89 1014.01 1013.89 1013.77 1013.81 1014.05 1014.25 1014.13 1014.09 1014.09 1014.41 1014.65 1015.09 1015.69 1016.13 1016.25 1016.57 1016.89 1017.25 1017.57 1017.81 1018.01 1018.33 1018.45 1018.77 1018.81 1018.85 1018.93
1013.69 1013.69 1013.73 1013.77 1013.69 1013.57 1013.41 1013.21 1013.01 1012.93 1012.97 1013.09 1013.37 1013.65 1013.73 1013.73 1013.69 1013.77 1013.81 1014.29 1015.33 1014.93 1014.29 1014.21 1014.57 1015.09 1015.45 1015.89 1016.25 1016.37 1016.49 1016.81 1017.17 1017.49 1017.69 1017.89 1018.17 1018.33 1018.49 1018.65 1018.77 1018.81
1013.49 1013.49 1013.53 1013.45 1013.41 1013.33 1013.17 1013.01 1012.97 1012.97 1013.01 1013.01 1013.05 1013.33 1013.49 1013.57 1013.69 1013.77 1013.81 1013.81 1014.13 1014.41 1014.73 1014.85 1015.13 1015.49 1015.57 1016.09 1016.41 1016.49 1016.57 1016.81 1017.09 1017.33 1017.69 1017.89 1018.05 1018.21 1018.33 1018.41 1018.53 1018.65
1013.45 1013.45 1013.37 1013.37 1013.33 1013.17 1013.05 1013.05 1013.05 1013.01 1013.05 1013.09 1013.09 1013.01 1013.25 1013.57 1013.65 1013.73 1013.77 1013.81 1014.29 1014.41 1014.57 1014.97 1015.61 1016.17 1016.17 1016.41 1016.69 1016.77 1016.89 1016.93 1017.01 1017.33 1017.65 1017.73 1017.81 1018.01 1018.09 1018.21 1018.37 1018.49
1013.45 1013.41 1013.37 1013.29 1013.21 1013.13 1013.05 1013.01 1013.01 1012.97 1012.93 1012.93 1013.01 1013.01 1013.25 1013.45 1013.57 1013.65 1013.69 1013.85 1014.17 1014.21 1014.41 1014.77 1015.97 1016.65 1016.65 1016.85 1016.97 1017.09 1017.13 1017.21 1016.97 1017.25 1017.53 1017.61 1017.85 1018.05 1018.21 1018.37 1018.49 1018.49
1013.45 1013.33 1013.37 1013.33 1013.25 1013.17 1013.17 1013.09 1013.01 1012.97 1012.93 1012.89 1012.97 1013.01 1013.05 1013.29 1013.49 1013.57 1013.61 1013.73 1014.09 1014.17 1014.49 1015.21 1016.21 1016.81 1016.89 1017.13 1017.25 1017.37 1017.49 1017.57 1017.21 1017.49 1017.73 1017.85 1017.93 1018.05 1018.17 1018.29 1018.41 1018.53
1013.41 1013.45 1013.41 1013.37 1013.25 1013.21 1013.17 1013.09 1012.97 1012.93 1012.93 1012.89 1012.89 1012.93 1012.89 1012.93 1013.09 1013.33 1013.57 1013.69 1013.77 1014.09 1014.69 1015.53 1016.41 1016.73 1017.01 1017.33 1017.49 1017.61 1017.81 1017.77 1017.37 1017.73 1017.85 1017.93 1017.93 1018.01 1018.17 1018.21 1018.29 1018.45
1013.29 1013.37 1013.41 1013.37 1013.33 1013.25 1013.17 1013.09 1013.01 1012.89 1012.81 1012.73 1012.89 1012.97 1013.05 1013.13 1013.13 1013.17 1013.29 1013.49 1013.69 1014.05 1014.53 1015.81 1016.61 1017.25 1017.33 1017.53 1017.73 1017.85 1017.85 1017.65 1017.53 1017.77 1017.85 1017.97 1017.93 1017.89 1017.93 1017.93 1018.01 1018.09
1013.17 1013.21 1013.25 1013.21 1013.21 1013.17 1013.05 1012.93 1012.85 1012.73 1012.61 1012.57 1012.81 1012.89 1012.97 1013.01 1013.01 1013.13 1013.25 1013.49 1013.85 1014.09 1014.89 1015.81 1016.69 1017.57 1017.81 1017.77 1017.81 1017.89 1017.81 1017.53 1017.53 1017.53 1017.57 1017.49 1017.49 1017.57 1017.53 1017.49 1017.49 1017.85
1013.01 1013.05 1013.13 1013.17 1013.17 1013.05 1012.97 1012.89 1012.81 1012.69 1012.49 1012.41 1012.53 1012.65 1012.81 1012.81 1012.89 1013.13 1013.41 1013.85 1014.09 1014.45 1015.33 1015.97 1016.93 1017.85 1018.17 1018.05 1018.01 1018.01 1018.01 1017.65 1017.33 1017.17 1017.21 1017.29 1017.29 1017.37 1017.45 1017.33 1017.33 1017.45
1012.81 1012.89 1012.97 1013.01 1012.97 1012.89 1012.85 1012.77 1012.61 1012.49 1012.41 1012.37 1012.45 1012.49 1012.65 1012.85 1012.89 1013.17 1013.81 1014.45 1014.93 1015.41 1015.89 1016.37 1017.13 1017.85 1018.21 1018.29 1018.29 1018.29 1018.37 1018.09 1017.53 1017.77 1017.65 1017.53 1017.61 1017.57 1017.49 1017.37 1017.37 1017.37
Wind_Speed
9 8 9 8 8 7 8 7 7 7 6 5 6 6 6 5 6 5 5 4 4 4 4 4 4 3 3 3 2 3 4 4 4 4 4 4 4 4 4 4 4 4
10 9 8 8 8 7 8 7 7 7 6 6 5 6 7 7 7 5 5 5 5 4 4 4 3 3 3 3 3 3 3 3 3 3 3 3 3 3 4 4 5 4
10 9 9 9 8 8 8 8 8 7 7 7 6 7 7 8 8 7 6 6 6 6 5 4 4 4 3 3 3 2 3 3 3 2 2 3 3 3 2 3 3 3
10 10 9 8 8 8 8 8 8 8 7 8 8 7 8 8 8 8 8 8 6 6 6 5 5 5 5 4 4 3 4 3 3 3 3 2 1 2 2 2 2 4
11 10 9 9 8 7 7 8 9 9 9 9 9 9 9 9 9 9 9 8 8 8 7 7 6 5 5 5 5 4 4 3 3 4 3 3 2 2 1 1 1 1
10 10 10 10 9 7 8 8 8 9 9 10 10 10 10 11 10 11 10 10 9 9 8 8 8 7 6 6 5 5 5 4 4 3 4 4 4 3 2 1 1 2
9 8 9 9 9 9 7 7 7 9 10 9 9 10 11 12 11 12 12 11 11 10 10 9 9 8 7 7 6 6 5 5 5 4 4 4 3 2 2 1 1 1
8 7 8 8 9 9 7 7 5 5 9 10 9 10 11 12 13 11 12 12 11 11 11 11 10 10 9 8 8 7 6 5 5 5 5 4 3 4 3 1 1 2
7 7 8 9 9 9 9 7 5 4 10 9 11 9 10 11 12 12 13 13 12 12 12 11 11 11 9 9 8 8 8 7 6 6 5 4 5 4 4 4 2 2
7 6 6 7 7 8 10 10 7 7 8 7 9 10 10 10 12 13 12 13 13 13 13 12 12 11 10 10 10 9 9 8 8 7 6 5 5 4 3 3 3 2
5 5 5 2 4 4 5 8 9 10 8 8 8 10 11 12 12 12 12 13 12 13 13 13 12 12 12 11 10 9 9 8 8 7 7 6 4 3 1 3 2 3
3 3 4 5 5 7 6 7 9 10 10 9 10 10 9 11 13 12 12 13 13 13 13 12 12 11 12 11 11 10 9 8 8 7 7 6 5 4 4 4 3 3
3 2 3 4 4 4 6 6 9 12 12 10 8 10 7 11 14 15 13 13 13 13 13 13 12 12 11 11 11 11 11 10 9 8 7 6 5 5 4 4 3 3
4 5 5 5 3 4 5 9 9 4 3 3 8 12 9 13 13 15 13 13 13 13 13 12 12 11 13 12 11 11 11 10 9 8 8 7 6 5 5 4 4 3
2 2 3 5 6 7 7 9 8 8 6 4 8 11 11 14 15 14 12 14 13 13 13 12 11 11 12 12 11 12 11 10 10 9 8 7 7 6 6 5 4 4
2 3 5 6 6 7 8 8 7 8 7 10 14 14 13 11 12 13 12 10 13 13 12 11 10 9 9 12 12 10 11 9 8 8 8 7 7 7 6 6 5 4
3 4 4 6 6 6 7 7 8 7 7 8 8 9 9 10 11 11 12 7 8 15 15 6 3 2 11 12 11 11 10 9 8 8 8 7 7 6 6 6 5 5
4 5 6 6 6 6 6 7 6 6 7 8 7 8 9 9 9 10 10 10 5 2 2 2 3 9 14 13 11 9 7 8 8 7 7 6 6 6 5 5 5 4
5 6 6 6 6 7 6 6 7 6 7 7 8 7 7 7 8 8 9 9 6 9 8 7 5 9 12 13 11 10 7 6 7 7 7 7 6 6 4 3 3 4
6 6 7 7 7 7 7 7 7 8 7 7 7 7 7 7 7 8 8 8 8 8 9 7 9 8 12 12 11 10 5 0 5 7 5 5 5 5 4 5 5 5
6 6 6 7 7 8 8 8 8 8 8 7 7 7 8 7 8 9 8 8 7 8 6 8 8 12 12 12 10 9 6 2 2 5 4 4 4 5 5 5 5 5
6 6 6 7 7 7 8 8 8 8 8 7 7 7 7 7 6 7 9 8 9 8 7 9 8 14 13 12 11 9 7 3 4 5 4 3 5 5 5 5 6 5
6 6 7 7 8 8 9 9 9 9 8 7 8 7 7 7 7 7 8 9 9 8 7 9 9 10 13 13 12 10 7 5 5 5 4 6 5 6 6 6 6 6
7 7 7 8 8 9 9 9 9 8 8 7 8 8 8 8 7 7 7 7 8 8 10 11 10 9 12 12 12 12 6 4 5 5 5 4 4 5 5 5 6 5
8 8 8 8 9 9 9 10 9 9 9 7 7 8 8 7 7 6 6 3 3 6 12 12 9 9 10 11 11 10 5 3 4 2 2 3 3 4 4 5 6 7
7 8 8 8 9 8 8 9 8 9 9 8 8 7 7 7 6 6 6 6 7 9 8 9 10 7 9 9 8 7 4 5 1 1 3 3 4 5 5 5 5 7
Wind_Direction
186 188 185 186 189 177 177 186 178 171 184 171 169 172 169 166 164 183 162 166 147 140 140 136 128 124 119 113 88 75 81 72 69 61 58 54 64 49 53 44 28 10
192 196 191 190 197 186 178 187 181 174 186 180 176 168 167 164 171 178 168 166 169 160 157 155 149 146 154 128 115 105 106 113 99 93 99 84 86 80 55 33 31 0
194 200 200 201 201 194 182 181 183 182 184 185 178 173 167 167 177 175 173 176 180 170 172 170 169 167 158 135 146 143 118 134 123 113 91 75 51 57 60 23 32 16
197 201 206 211 211 202 191 184 187 186 186 184 186 179 170 170 180 178 177 181 183 179 182 182 179 178 172 162 174 156 145 155 135 132 136 122 101 73 50 47 37 17
196 201 206 211 216 217 201 201 196 194 191 187 185 185 177 174 182 183 184 183 188 185 185 186 185 181 180 174 192 159 174 159 150 182 157 136 117 81 74 92 35 7
203 209 210 214 217 211 223 217 219 211 199 194 187 187 185 180 187 187 189 187 190 190 186 189 187 183 186 187 188 179 186 182 164 182 169 169 157 175 155 171 192 216
208 211 218 222 221 217 215 225 222 234 226 206 195 194 188 186 191 192 193 193 194 194 191 190 189 186 189 185 197 182 197 174 166 195 187 176 155 158 173 229 309 307
221 210 219 225 226 224 218 211 219 239 263 232 213 200 198 192 195 193 196 197 199 197 197 195 194 192 191 187 198 185 188 166 187 190 204 163 186 200 158 208 216 283
237 234 232 235 233 235 227 213 209 236 264 256 231 224 210 203 201 199 199 199 200 201 201 202 199 196 193 194 196 186 182 181 189 194 189 178 195 203 213 170 219 228
229 232 251 252 255 248 244 231 222 216 208 239 255 241 230 217 216 207 203 203 203 203 203 202 201 199 195 198 199 190 189 186 189 186 190 190 199 201 206 195 226 230
286 280 259 300 331 312 320 312 273 243 219 218 230 240 241 240 220 224 212 208 208 207 206 204 202 201 197 196 198 193 193 188 188 188 190 195 194 203 179 258 219 229
229 234 262 253 230 250 246 227 234 249 247 228 221 230 224 238 244 229 226 216 212 212 212 208 206 209 201 196 197 190 191 188 189 189 186 193 188 204 207 198 224 255
54 2 300 278 286 272 260 254 247 243 240 235 242 240 246 254 243 240 228 225 218 216 216 213 211 216 215 202 198 186 190 184 189 185 187 192 191 196 197 196 213 230
6 340 332 327 319 289 261 249 247 260 294 357 309 283 242 242 241 240 232 225 224 221 217 217 216 210 217 214 200 184 184 182 183 183 188 186 187 199 190 191 202 220
247 269 287 300 281 267 264 267 253 205 202 213 251 265 260 244 242 242 240 231 228 229 222 217 216 216 222 219 204 180 182 180 180 183 187 179 184 193 184 194 201 203
233 238 245 250 255 254 253 258 268 270 244 212 205 220 240 245 251 247 239 240 246 238 235 221 213 215 201 184 186 183 179 177 174 179 180 181 185 183 184 199 199 197
273 255 249 250 252 262 267 270 271 268 260 252 247 248 245 247 244 247 249 224 254 256 240 217 121 95 127 147 166 164 174 172 168 175 181 179 184 188 196 193 204 208
296 286 276 277 275 276 277 272 273 273 268 263 249 238 244 248 247 243 248 252 222 111 24 186 198 124 133 128 129 137 156 161 173 169 171 180 195 190 197 207 207 209
292 286 282 282 286 287 293 290 278 272 268 268 264 255 242 244 246 243 248 246 193 204 196 190 148 137 127 127 120 117 128 165 170 175 180 193 193 191 206 206 219 228
290 291 291 291 294 292 290 288 278 272 275 269 265 254 241 242 238 238 240 241 218 221 219 190 122 143 132 127 128 124 129 202 210 167 188 182 187 192 201 219 224 235
287 290 296 301 300 297 293 288 287 282 274 266 258 255 246 234 238 239 234 234 233 224 201 127 136 145 141 138 134 132 127 266 204 150 184 192 208 209 218 230 241 244
285 287 292 292 289 288 287 283 282 279 268 262 261 261 257 250 240 241 243 229 224 215 171 132 143 151 143 144 142 146 158 216 181 158 196 209 212 216 217 231 235 235
288 288 287 290 290 287 281 280 279 276 270 262 257 252 251 243 248 246 237 234 220 207 163 135 143 155 151 151 152 159 177 190 167 182 200 211 217 227 231 237 240 240
281 286 286 285 288 284 284 282 277 274 271 257 253 253 247 247 239 242 240 231 215 189 141 145 146 160 162 157 158 175 201 183 181 197 210 224 229 231 247 254 259 190
283 283 284 283 282 283 282 279 274 272 268 261 255 252 254 250 233 235 226 169 163 132 123 132 136 154 171 162 169 179 215 206 217 227 233 240 262 271 266 269 270 199
272 270 270 274 276 277 277 275 275 272 265 259 260 256 254 254 231 225 156 128 123 119 128 132 139 153 171 167 164 185 252 339 23 50 286 304 292 281 290 284 281 289